New Ulm, MN

4:09 PM CST on December 13, 2019 (GMT -0600)
New Ulm Municipal

Weather History for KULM - July, 2019

Change the Weather History Date:

Sunday, July 21, 2019

  Actual Average Record
Temperature  
Mean Temperature 69 °F -  
Max Temperature 78 °F 83 °F 100 °F (1983)
Min Temperature 60 °F 60 °F 46 °F (1992)
Cooling Degree Days 4    
Growing Degree Days 19 (Base 50)    
Moisture  
Dew Point 59 °F    
Average Humidity 71    
Maximum Humidity 100    
Minimum Humidity 44    
Precipitation  
Precipitation 0.00 in - - ()
Sea Level Pressure  
Sea Level Pressure 30.08 in    
Wind  
Wind Speed 3 mph (North)    
Max Wind Speed 9 mph    
Max Gust Speed 9 mph    
Visibility 10 miles    
Events      
Averages and records for this station are not official NWS values.
T = Trace of Precipitation, MM = Missing Value Source: NWS Daily Summary

Daily Weather History Graph

Daily Weather History Graph

Search for Another Location

Airport or City:

Astronomy

Jul. 21, 2019 Rise Set
Actual Time 5:53 AM CDT 8:54 PM CDT
Civil Twilight 5:18 AM CDT 9:29 PM CDT
Nautical Twilight 4:34 AM CDT 10:13 PM CDT
Astronomical Twilight 3:41 AM CDT 11:05 PM CDT
Moon 11:40 PM CDT (7/21) 10:22 AM CDT (7/21)
Length of Visible Light 16h 10m
Length of Day
15h 01m
Waning Gibbous, 80% of the Moon is Illuminated
Jul 21
Waning Gibbous
Jul 24
Last Quarter
Jul 31
New
Aug 7
First Quarter
Aug 15
Full

Hourly Weather History & Observations

Time (CDT) Temp. Dew Point Humidity Pressure Visibility Wind Dir Wind Speed Gust Speed Precip Events Conditions
12:15 AM 62.6 °F 60.8 °F 94% 30.01 in 10.0 mi Calm Calm - N/A   Clear
12:16 AM 62.6 °F 60.8 °F 94% 30.01 in 10.0 mi Calm Calm - N/A   Clear
12:35 AM 60.8 °F 60.8 °F 100% 30.01 in 10.0 mi Calm Calm - N/A   Clear
12:36 AM 60.8 °F 60.8 °F 100% 30.01 in 10.0 mi Calm Calm - N/A   Clear
12:55 AM 60.8 °F 59.0 °F 94% 30.01 in 10.0 mi Calm Calm - N/A   Clear
12:56 AM 60.8 °F 59.0 °F 94% 30.01 in 10.0 mi Calm Calm - N/A   Clear
1:15 AM 60.8 °F 59.0 °F 94% 30.01 in 10.0 mi Calm Calm - N/A   Clear
1:35 AM 62.6 °F 60.8 °F 94% 30.01 in 10.0 mi Calm Calm - N/A   Clear
1:55 AM 60.8 °F 57.2 °F 88% 30.01 in 10.0 mi Calm Calm - N/A   Clear
2:15 AM 60.8 °F 57.2 °F 88% 30.01 in 10.0 mi Calm Calm - N/A   Clear
2:16 AM 60.8 °F 59.0 °F 94% 30.01 in 10.0 mi Calm Calm - N/A   Clear
2:35 AM 64.4 °F 59.0 °F 83% 30.01 in 10.0 mi NNE 5.8 mph - N/A   Clear
2:55 AM 62.6 °F 59.0 °F 88% 30.01 in 10.0 mi Calm Calm - N/A   Clear
3:15 AM 62.6 °F 59.0 °F 88% 30.02 in 10.0 mi Calm Calm - N/A   Clear
3:35 AM 62.6 °F 59.0 °F 88% 30.03 in 10.0 mi Calm Calm - N/A   Clear
3:36 AM 62.6 °F 59.0 °F 88% 30.03 in 10.0 mi Calm Calm - N/A   Clear
3:55 AM 62.6 °F 59.0 °F 88% 30.03 in 10.0 mi North 3.5 mph - N/A   Clear
4:15 AM 62.6 °F 59.0 °F 88% 30.02 in 10.0 mi NNE 4.6 mph - N/A   Clear
4:35 AM 62.6 °F 59.0 °F 88% 30.02 in 10.0 mi NNE 4.6 mph - N/A   Clear
4:36 AM 62.6 °F 59.0 °F 88% 30.02 in 10.0 mi NNE 3.5 mph - N/A   Clear
4:55 AM 62.6 °F 59.0 °F 88% 30.03 in 10.0 mi NNE 3.5 mph - N/A   Clear
5:15 AM 62.6 °F 59.0 °F 88% 30.02 in 10.0 mi NNE 3.5 mph - N/A   Clear
5:35 AM 62.6 °F 57.2 °F 82% 30.02 in 10.0 mi Calm Calm - N/A   Clear
5:55 AM 62.6 °F 57.2 °F 82% 30.03 in 10.0 mi North 3.5 mph - N/A   Clear
5:56 AM 62.6 °F 57.2 °F 82% 30.03 in 10.0 mi North 3.5 mph - N/A   Clear
6:15 AM 62.6 °F 57.2 °F 82% 30.03 in 10.0 mi NNE 3.5 mph - N/A   Clear
6:16 AM 62.6 °F 57.2 °F 82% 30.03 in 10.0 mi NNE 4.6 mph - N/A   Clear
6:35 AM 62.6 °F 57.2 °F 82% 30.05 in 10.0 mi Calm Calm - N/A   Clear
6:55 AM 62.6 °F 57.2 °F 82% 30.06 in 10.0 mi Calm Calm - N/A   Clear
7:15 AM 64.4 °F 60.8 °F 88% 30.07 in 10.0 mi Calm Calm - N/A   Clear
7:35 AM 66.2 °F 60.8 °F 83% 30.08 in 10.0 mi Calm Calm - N/A   Clear
7:55 AM 66.2 °F 60.8 °F 83% 30.07 in 10.0 mi Calm Calm - N/A   Clear
7:56 AM 66.2 °F 60.8 °F 83% 30.07 in 10.0 mi Calm Calm - N/A   Clear
8:15 AM 66.2 °F 60.8 °F 83% 30.08 in 10.0 mi Calm Calm - N/A   Clear
8:35 AM 68.0 °F 60.8 °F 78% 30.07 in 10.0 mi NNE 3.5 mph - N/A   Clear
8:36 AM 68.0 °F 60.8 °F 78% 30.07 in 10.0 mi NNE 3.5 mph - N/A   Clear
8:55 AM 68.0 °F 60.8 °F 78% 30.07 in 10.0 mi NNE 3.5 mph - N/A   Clear
9:15 AM 69.8 °F 62.6 °F 78% 30.07 in 10.0 mi NNE 3.5 mph - N/A   Clear
9:35 AM 69.8 °F 60.8 °F 73% 30.08 in 10.0 mi North 3.5 mph - N/A   Clear
9:55 AM 71.6 °F 60.8 °F 69% 30.09 in 10.0 mi Calm Calm - N/A   Clear
9:56 AM 71.6 °F 60.8 °F 69% 30.09 in 10.0 mi North 3.5 mph - N/A   Clear
10:15 AM 71.6 °F 62.6 °F 73% 30.09 in 10.0 mi NNE 4.6 mph - N/A   Clear
10:16 AM 71.6 °F 62.6 °F 73% 30.09 in 10.0 mi NNE 4.6 mph - N/A   Clear
10:35 AM 73.4 °F 62.6 °F 69% 30.10 in 10.0 mi North 4.6 mph - N/A   Clear
10:55 AM 73.4 °F 62.6 °F 69% 30.11 in 10.0 mi NNE 4.6 mph - N/A   Clear
11:15 AM 73.4 °F 62.6 °F 69% 30.11 in 10.0 mi NNE 4.6 mph - N/A   Clear
11:35 AM 75.2 °F 60.8 °F 61% 30.12 in 10.0 mi North 4.6 mph - N/A   Unknown
11:55 AM 75.2 °F 62.6 °F 65% 30.12 in 10.0 mi NE 4.6 mph - N/A   Clear
11:56 AM 75.2 °F 62.6 °F 65% 30.12 in 10.0 mi NNE 4.6 mph - N/A   Clear
12:15 PM 75.2 °F 60.8 °F 61% 30.11 in 7.0 mi NNE 4.6 mph - N/A   Clear
12:35 PM 77.0 °F 57.2 °F 50% 30.11 in 10.0 mi East 5.8 mph - N/A   Clear
12:55 PM 77.0 °F 57.2 °F 50% 30.11 in 10.0 mi Calm Calm - N/A   Clear
12:56 PM 77.0 °F 57.2 °F 50% 30.11 in 10.0 mi Calm Calm - N/A   Clear
1:15 PM 78.8 °F 59.0 °F 51% 30.10 in 10.0 mi NNE 4.6 mph - N/A   Clear
1:35 PM 78.8 °F 57.2 °F 47% 30.09 in 10.0 mi NE 5.8 mph - N/A   Clear
1:55 PM 78.8 °F 55.4 °F 44% 30.09 in 10.0 mi North 3.5 mph - N/A   Clear
2:15 PM 78.8 °F 55.4 °F 44% 30.09 in 10.0 mi NE 8.1 mph - N/A   Clear
2:16 PM 78.8 °F 55.4 °F 44% 30.09 in 10.0 mi NE 4.6 mph 9.2 mph N/A   Clear
2:35 PM 78.8 °F 57.2 °F 47% 30.08 in 10.0 mi NNE 8.1 mph - N/A   Clear
2:55 PM 78.8 °F 57.2 °F 47% 30.09 in 10.0 mi North 4.6 mph - N/A   Scattered Clouds
3:15 PM 77.0 °F 55.4 °F 47% 30.09 in 10.0 mi NE 8.1 mph - N/A   Scattered Clouds
3:35 PM 78.8 °F 57.2 °F 47% 30.09 in 10.0 mi North 6.9 mph - N/A   Scattered Clouds
3:36 PM 78.8 °F 57.2 °F 47% 30.09 in 10.0 mi North 6.9 mph - N/A   Scattered Clouds
3:55 PM 78.8 °F 59.0 °F 51% 30.08 in 10.0 mi North 8.1 mph - N/A   Scattered Clouds
4:15 PM 77.0 °F 57.2 °F 50% 30.08 in 10.0 mi NNE 8.1 mph - N/A   Scattered Clouds
4:35 PM 77.0 °F 57.2 °F 50% 30.09 in 10.0 mi North 3.5 mph - N/A   Scattered Clouds
4:55 PM 75.2 °F 57.2 °F 53% 30.10 in 10.0 mi North 6.9 mph - N/A   Scattered Clouds
5:15 PM 78.8 °F 57.2 °F 47% 30.10 in 10.0 mi North 5.8 mph - N/A   Scattered Clouds
5:35 PM 78.8 °F 57.2 °F 47% 30.10 in 10.0 mi NNW 9.2 mph - N/A   Scattered Clouds
5:55 PM 77.0 °F 55.4 °F 47% 30.10 in 10.0 mi North 5.8 mph - N/A   Scattered Clouds
5:56 PM 77.0 °F 57.2 °F 50% 30.10 in 10.0 mi North 6.9 mph - N/A   Scattered Clouds
6:15 PM 77.0 °F 55.4 °F 47% 30.11 in 10.0 mi North 8.1 mph - N/A   Scattered Clouds
6:35 PM 75.2 °F 55.4 °F 50% 30.11 in 10.0 mi North 5.8 mph - N/A   Clear
6:36 PM 75.2 °F 55.4 °F 50% 30.11 in 10.0 mi North 5.8 mph - N/A   Clear
6:55 PM 75.2 °F 55.4 °F 50% 30.11 in 10.0 mi NNW 4.6 mph - N/A   Clear
6:56 PM 75.2 °F 57.2 °F 53% 30.12 in 10.0 mi NNW 5.8 mph - N/A   Clear
7:15 PM 73.4 °F 57.2 °F 57% 30.12 in 10.0 mi NNW 8.1 mph - N/A   Clear
7:16 PM 73.4 °F 57.2 °F 57% 30.12 in 10.0 mi NNW 9.2 mph - N/A   Clear
7:35 PM 73.4 °F 57.2 °F 57% 30.12 in 10.0 mi North 4.6 mph - N/A   Clear
7:55 PM 73.4 °F 57.2 °F 57% 30.12 in 10.0 mi NNW 8.1 mph - N/A   Clear
8:15 PM 71.6 °F 59.0 °F 64% 30.13 in 10.0 mi NNW 4.6 mph - N/A   Scattered Clouds
8:35 PM 69.8 °F 60.8 °F 73% 30.13 in 10.0 mi NW 5.8 mph - N/A   Scattered Clouds
8:36 PM 69.8 °F 60.8 °F 73% 30.13 in 10.0 mi NW 4.6 mph - N/A   Scattered Clouds
8:55 PM 69.8 °F 60.8 °F 73% 30.13 in 10.0 mi NW 4.6 mph - N/A   Clear
8:56 PM 69.8 °F 60.8 °F 73% 30.13 in 10.0 mi NW 4.6 mph - N/A   Clear
9:15 PM 69.8 °F 60.8 °F 73% 30.13 in 10.0 mi NW 5.8 mph - N/A   Clear
9:35 PM 66.2 °F 59.0 °F 78% 30.13 in 10.0 mi NW 6.9 mph - N/A   Clear
9:36 PM 66.2 °F 59.0 °F 78% 30.13 in 10.0 mi NW 6.9 mph - N/A   Clear
9:55 PM 66.2 °F 57.2 °F 73% 30.14 in 10.0 mi NW 6.9 mph - N/A   Clear
10:15 PM 66.2 °F 59.0 °F 78% 30.14 in 10.0 mi NNW 6.9 mph - N/A   Scattered Clouds
10:16 PM 66.2 °F 57.2 °F 73% 30.14 in 10.0 mi NW 6.9 mph - N/A   Scattered Clouds
10:35 PM 66.2 °F 57.2 °F 73% 30.14 in 10.0 mi NNW 6.9 mph - N/A   Clear
10:55 PM 66.2 °F 57.2 °F 73% 30.14 in 10.0 mi North 5.8 mph - N/A   Clear
10:56 PM 66.2 °F 57.2 °F 73% 30.14 in 10.0 mi North 5.8 mph - N/A   Clear
11:15 PM 66.2 °F 57.2 °F 73% 30.15 in 10.0 mi NNW 6.9 mph - N/A   Clear
11:35 PM 66.2 °F 57.2 °F 73% 30.15 in 10.0 mi North 5.8 mph - N/A   Mostly Cloudy
11:36 PM 66.2 °F 57.2 °F 73% 30.15 in 10.0 mi North 5.8 mph - N/A   Mostly Cloudy
11:55 PM 66.2 °F 55.4 °F 68% 30.15 in 10.0 mi North 6.9 mph - N/A   Scattered Clouds